Atmospheric History
02/08/2018 18:34  to  2/9/2018 18:34
Change End Date:
To complete the export process:
1) Select all of the data below
2) Copy the data to the clipboard
3) Open a word processor such as Notepad
4) Paste the data into the word processor
5) Save the file

Date/Time (MDT), AirTemp, RH, Dewpoint ,AvgWindSpeed, GustWindSpeed, WindDirection, PrecipType, PrecipIntensity, PrecipAccumulation, PrecipRate
02/09/2018 18:31, -13, 78, -18 ,17, 22, W, None, None, ,  
02/09/2018 18:25, -13, 79, -18 ,20, 22, W, None, None, ,  
02/09/2018 18:17, -13, 79, -18 ,17, 18, W, None, None, ,  
02/09/2018 18:15, -14, 79, -18 ,17, 18, W, None, None, ,  
02/09/2018 18:05, -13, 79, -18 ,16, 18, W, None, None, ,  
02/09/2018 18:01, -13, 79, -18 ,15, 16, W, None, None, ,  
02/09/2018 17:55, -13, 79, -18 ,13, 15, W, None, None, ,  
02/09/2018 17:46, -12, 79, -17 ,10, 16, SW, None, None, ,  
02/09/2018 17:45, -12, 79, -17 ,10, 16, SW, None, None, ,  
02/09/2018 17:35, -12, 79, -16 ,13, 16, W, None, None, ,  
02/09/2018 17:31, -11, 79, -16 ,14, 16, W, None, None, ,  
02/09/2018 17:25, -11, 79, -16 ,10, 16, W, None, None, ,  
02/09/2018 17:16, -10, 80, -14 ,14, 19, W, None, None, ,  
02/09/2018 17:15, -10, 80, -14 ,15, 19, W, None, None, ,  
02/09/2018 17:05, -10, 80, -14 ,15, 17, W, None, None, ,  
02/09/2018 17:01, -10, 79, -15 ,12, 15, W, None, None, ,  
02/09/2018 16:55, -10, 79, -14 ,11, 13, W, None, None, ,  
02/09/2018 16:46, -9, 78, -14 ,11, 16, W, None, None, ,  
02/09/2018 16:45, -9, 78, -14 ,11, 16, W, None, None, ,  
02/09/2018 16:35, -8, 79, -13 ,14, 18, W, None, None, ,  
02/09/2018 16:31, -8, 79, -12 ,15, 18, W, None, None, ,  
02/09/2018 16:25, -7, 79, -12 ,14, 18, W, None, None, ,  
02/09/2018 16:16, -7, 78, -12 ,15, 21, W, None, None, ,  
02/09/2018 16:14, -7, 78, -12 ,15, 21, NW, None, None, ,  
02/09/2018 16:04, -7, 79, -12 ,15, 19, NW, None, None, ,  
02/09/2018 16:01, -7, 79, -12 ,14, 17, W, None, None, ,  
02/09/2018 15:54, -6, 79, -11 ,15, 21, NW, None, None, ,  
02/09/2018 15:46, -6, 79, -10 ,17, 21, NW, None, None, ,  
02/09/2018 15:44, -6, 79, -10 ,17, 21, NW, None, None, ,  
02/09/2018 15:34, -5, 79, -10 ,19, 22, NW, None, None, ,  
02/09/2018 15:31, -5, 79, -10 ,17, 21, NW, None, None, ,  
02/09/2018 15:24, -5, 79, -10 ,16, 21, NW, None, None, ,  
02/09/2018 15:16, -5, 79, -10 ,14, 19, NW, None, None, ,  
02/09/2018 15:14, -5, 79, -10 ,14, 19, NW, None, None, ,  
02/09/2018 15:04, -5, 79, -10 ,16, 20, NW, None, None, ,  
02/09/2018 15:01, -5, 79, -10 ,16, 20, NW, None, None, ,  
02/09/2018 14:54, -5, 79, -10 ,16, 19, NW, None, None, ,  
02/09/2018 14:46, -5, 79, -10 ,14, 17, NW, None, None, ,  
02/09/2018 14:44, -5, 80, -9 ,13, 17, NW, None, None, ,  
02/09/2018 14:34, -5, 79, -9 ,12, 17, NW, None, None, ,  
02/09/2018 14:31, -5, 79, -9 ,13, 17, NW, None, None, ,  
02/09/2018 14:24, -5, 79, -10 ,14, 18, W, None, None, ,  
02/09/2018 14:16, -4, 80, -9 ,14, 17, W, None, None, ,  
02/09/2018 14:14, -4, 80, -9 ,14, 18, NW, None, None, ,  
02/09/2018 14:04, -4, 80, -9 ,11, 17, NW, None, None, ,  
02/09/2018 14:01, -4, 80, -9 ,13, 17, NW, None, None, ,  
02/09/2018 13:53, -4, 80, -9 ,12, 17, NW, None, None, ,  
02/09/2018 13:46, -4, 80, -9 ,13, 16, NW, None, None, ,  
02/09/2018 13:43, -5, 80, -9 ,13, 16, NW, None, None, ,  
02/09/2018 13:33, -5, 80, -9 ,12, 15, NW, None, None, ,  
02/09/2018 13:31, -5, 81, -9 ,12, 15, NW, None, None, ,  
02/09/2018 13:23, -5, 81, -9 ,12, 16, NW, None, None, ,  
02/09/2018 13:16, -5, 81, -9 ,13, 16, NW, None, None, ,  
02/09/2018 13:13, -5, 81, -9 ,14, 17, NW, None, None, ,  
02/09/2018 13:03, -5, 81, -9 ,12, 17, NW, None, None, ,  
02/09/2018 13:01, -5, 81, -9 ,15, 17, NW, None, None, ,  
02/09/2018 12:53, -5, 81, -9 ,11, 17, NW, None, None, ,  
02/09/2018 12:46, -5, 81, -10 ,15, 17, NW, None, None, ,  
02/09/2018 12:43, -5, 81, -10 ,13, 16, NW, None, None, ,  
02/09/2018 12:33, -6, 81, -10 ,11, 15, NW, None, None, ,  
02/09/2018 12:31, -6, 81, -10 ,11, 16, NW, None, None, ,  
02/09/2018 12:23, -6, 81, -10 ,13, 16, NW, None, None, ,  
02/09/2018 12:16, -6, 81, -10 ,14, 16, NW, None, None, ,  
02/09/2018 12:13, -6, 81, -10 ,12, 17, NW, None, None, ,  
02/09/2018 12:03, -6, 81, -10 ,14, 17, NW, None, None, ,  
02/09/2018 12:01, -6, 81, -11 ,12, 17, NW, None, None, ,  
02/09/2018 11:53, -7, 81, -11 ,13, 16, NW, None, None, ,  
02/09/2018 11:46, -7, 81, -11 ,11, 13, NW, None, None, ,  
02/09/2018 11:43, -7, 81, -11 ,9, 12, NW, None, None, ,  
02/09/2018 11:33, -8, 80, -12 ,10, 12, NW, None, None, ,  
02/09/2018 11:31, -8, 80, -12 ,11, 12, W, None, None, ,  
02/09/2018 11:23, -8, 80, -13 ,10, 11, W, None, None, ,  
02/09/2018 11:16, -8, 80, -13 ,8, 9, W, None, None, ,  
02/09/2018 11:12, -8, 80, -12 ,7, 9, W, None, None, ,  
02/09/2018 11:02, -7, 81, -11 ,6, 9, NW, None, None, ,  
02/09/2018 11:01, -8, 81, -12 ,5, 9, NW, None, None, ,  
02/09/2018 10:52, -8, 80, -13 ,7, 9, NW, None, None, ,  
02/09/2018 10:46, -8, 80, -13 ,6, 7, NW, None, None, ,  
02/09/2018 10:42, -8, 80, -13 ,6, 7, NW, None, None, ,  
02/09/2018 10:32, -8, 80, -12 ,4, 9, NW, None, None, ,  
02/09/2018 10:31, -8, 80, -13 ,4, 9, NW, None, None, ,  
02/09/2018 10:22, -9, 80, -13 ,7, 9, NW, None, None, ,  
02/09/2018 10:16, -9, 80, -13 ,6, 9, NW, None, None, ,  
02/09/2018 10:12, -9, 80, -13 ,6, 9, NW, None, None, ,  
02/09/2018 10:02, -9, 80, -13 ,7, 8, NW, None, None, ,  
02/09/2018 10:01, -9, 80, -13 ,6, 7, NW, None, None, ,  
02/09/2018 09:52, -10, 80, -14 ,4, 6, NW, None, None, ,  
02/09/2018 09:46, -10, 80, -15 ,6, 7, NW, None, None, ,  
02/09/2018 09:42, -11, 80, -15 ,6, 8, NW, None, None, ,  
02/09/2018 09:32, -11, 80, -16 ,7, 9, NW, None, None, ,  
02/09/2018 09:31, -11, 80, -16 ,7, 9, NW, None, None, ,  
02/09/2018 09:22, -11, 79, -16 ,7, 9, N, None, None, ,  
02/09/2018 09:16, -12, 79, -16 ,6, 8, N, None, None, ,  
02/09/2018 09:12, -12, 79, -17 ,6, 7, N, None, None, ,  
02/09/2018 09:02, -12, 79, -16 ,7, 8, N, None, None, ,  
02/09/2018 09:01, -12, 79, -16 ,6, 8, N, None, None, ,  
02/09/2018 08:52, -12, 80, -16 ,6, 7, N, None, None, ,  
02/09/2018 08:46, -13, 79, -17 ,6, 7, N, None, None, ,  
02/09/2018 08:42, -13, 79, -18 ,6, 8, N, None, None, ,  
02/09/2018 08:31, -13, 79, -18 ,7, 9, N, None, None, ,  
02/09/2018 08:31, -13, 79, -18 ,7, 9, N, None, None, ,  
02/09/2018 08:21, -13, 79, -18 ,5, 6, N, None, None, ,  
02/09/2018 08:16, -13, 79, -18 ,5, 6, N, None, None, ,  
02/09/2018 08:11, -13, 79, -18 ,5, 6, N, None, None, ,  
02/09/2018 08:01, -14, 79, -18 ,4, 5, N, None, None, ,  
02/09/2018 08:01, -14, 79, -18 ,4, 5, N, None, None, ,  
02/09/2018 07:51, -14, 79, -19 ,2, 4, NW, None, None, ,  
02/09/2018 07:46, -14, 79, -19 ,2, 4, NW, None, None, ,  
02/09/2018 07:41, -14, 79, -19 ,2, 4, NW, None, None, ,  
02/09/2018 07:31, -16, 78, -21 ,1, 3, NW, None, None, ,  
02/09/2018 07:31, -16, 78, -21 ,1, 3, N, None, None, ,  
02/09/2018 07:21, -16, 79, -20 ,2, 4, NW, None, None, ,  
02/09/2018 07:16, -16, 79, -20 ,3, 4, NW, None, None, ,  
02/09/2018 07:11, -16, 78, -21 ,3, 4, NW, None, None, ,  
02/09/2018 07:01, -16, 79, -21 ,2, 6, NW, None, None, ,  
02/09/2018 07:01, -16, 79, -21 ,2, 6, NW, None, None, ,  
02/09/2018 06:51, -16, 78, -21 ,0, 0, W, None, None, ,  
02/09/2018 06:46, -16, 78, -21 ,0, 0, NW, None, None, ,  
02/09/2018 06:41, -16, 79, -20 ,0, 0, W, None, None, ,  
02/09/2018 06:31, -15, 79, -20 ,0, 4, N, None, None, ,  
02/09/2018 06:31, -15, 79, -20 ,0, 4, N, None, None, ,  
02/09/2018 06:21, -16, 78, -21 ,4, 4, NW, None, None, ,  
02/09/2018 06:16, -15, 79, -20 ,4, 6, NW, None, None, ,  
02/09/2018 06:11, -14, 80, -19 ,5, 7, NW, None, None, ,  
02/09/2018 06:02, -14, 79, -19 ,6, 7, NW, None, None, ,  
02/09/2018 06:01, -14, 80, -19 ,6, 7, NW, None, None, ,  
02/09/2018 05:50, -14, 79, -19 ,6, 7, NW, None, None, ,  
02/09/2018 05:46, -14, 80, -18 ,6, 7, NW, None, None, ,  
02/09/2018 05:40, -13, 80, -18 ,6, 7, NW, None, None, ,  
02/09/2018 05:32, -14, 80, -18 ,7, 8, NW, None, None, ,  
02/09/2018 05:30, -13, 80, -18 ,6, 8, NW, None, None, ,  
02/09/2018 05:20, -13, 81, -17 ,7, 8, NW, None, None, ,  
02/09/2018 05:16, -12, 81, -16 ,7, 8, NW, None, None, ,  
02/09/2018 05:10, -12, 81, -16 ,7, 7, NW, None, None, ,  
02/09/2018 05:02, -13, 81, -17 ,7, 7, NW, None, None, ,  
02/09/2018 05:00, -13, 80, -17 ,7, 7, NW, None, None, ,  
02/09/2018 04:50, -14, 80, -18 ,6, 7, NW, None, None, ,  
02/09/2018 04:47, -14, 80, -18 ,7, 7, NW, None, None, ,  
02/09/2018 04:40, -12, 81, -17 ,6, 7, NW, None, None, ,  
02/09/2018 04:31, -13, 80, -18 ,6, 9, NW, None, None, ,  
02/09/2018 04:30, -13, 81, -18 ,7, 9, NW, None, None, ,  
02/09/2018 04:20, -14, 81, -18 ,9, 10, NW, None, None, ,  
02/09/2018 04:16, -14, 81, -18 ,9, 10, NW, None, None, ,  
02/09/2018 04:10, -16, 79, -20 ,7, 10, NW, None, None, ,  
02/09/2018 04:01, -14, 81, -18 ,9, 11, NW, None, None, ,  
02/09/2018 04:00, -14, 81, -18 ,9, 11, NW, None, None, ,  
02/09/2018 03:50, -16, 80, -21 ,9, 10, W, None, None, ,  
02/09/2018 03:49, -16, 80, -20 ,9, 10, W, None, None, ,  
02/09/2018 03:40, -17, 79, -22 ,8, 9, W, None, None, ,  
02/09/2018 03:31, -18, 78, -22 ,7, 8, W, None, None, ,  
02/09/2018 03:30, -15, 80, -19 ,7, 9, W, None, None, ,  
02/09/2018 03:20, -15, 80, -20 ,7, 9, NW, None, None, ,  
02/09/2018 03:16, -15, 80, -19 ,7, 8, NW, None, None, ,  
02/09/2018 03:09, -14, 80, -18 ,7, 9, NW, None, None, ,  
02/09/2018 03:02, -15, 78, -20 ,6, 11, W, None, None, ,  
02/09/2018 02:59, -12, 81, -16 ,7, 11, NW, None, None, ,  
02/09/2018 02:49, -12, 81, -16 ,7, 9, NW, None, None, ,  
02/09/2018 02:47, -12, 81, -16 ,8, 11, NW, None, None, ,  
02/09/2018 02:39, -12, 81, -16 ,7, 12, N, None, None, ,  
02/09/2018 02:32, -11, 81, -16 ,11, 13, NW, None, None, ,  
02/09/2018 02:29, -11, 81, -15 ,11, 14, NW, None, None, ,  
02/09/2018 02:19, -11, 81, -15 ,12, 13, N, None, None, ,  
02/09/2018 02:16, -12, 81, -16 ,11, 12, NW, None, None, ,  
02/09/2018 02:09, -11, 82, -15 ,11, 12, NW, None, None, ,  
02/09/2018 02:01, -11, 82, -15 ,11, 12, NW, None, None, ,  
02/09/2018 01:59, -11, 82, -15 ,11, 12, NW, None, None, ,  
02/09/2018 01:49, -12, 81, -16 ,10, 11, NW, None, None, ,  
02/09/2018 01:46, -12, 81, -16 ,10, 12, NW, None, None, ,  
02/09/2018 01:39, -12, 82, -16 ,11, 12, NW, None, None, ,  
02/09/2018 01:31, -12, 81, -16 ,9, 12, NW, None, None, ,  
02/09/2018 01:29, -12, 81, -16 ,10, 13, NW, None, None, ,  
02/09/2018 01:19, -11, 83, -15 ,12, 14, NW, None, None, ,  
02/09/2018 01:17, -12, 83, -16 ,12, 12, NW, None, None, ,  
02/09/2018 01:09, -13, 82, -17 ,10, 11, NW, None, None, ,  
02/09/2018 01:01, -14, 80, -19 ,9, 10, NW, None, None, ,  
02/09/2018 00:59, -14, 80, -18 ,9, 10, NW, None, None, ,  
02/09/2018 00:48, -12, 82, -16 ,11, 12, NW, None, None, ,  
02/09/2018 00:46, -12, 82, -15 ,12, 12, NW, None, None, ,  
02/09/2018 00:38, -12, 81, -17 ,9, 11, NW, None, None, ,  
02/09/2018 00:31, -11, 82, -15 ,10, 12, NW, None, None, ,  
02/09/2018 00:28, -11, 82, -15 ,9, 12, NW, None, None, ,  
02/09/2018 00:18, -10, 82, -14 ,10, 12, NW, None, None, ,  
02/09/2018 00:17, -10, 83, -14 ,11, 12, NW, None, None, ,  
02/09/2018 00:08, -10, 83, -14 ,12, 13, NW, None, None, ,  
02/09/2018 00:01, -11, 83, -15 ,12, 14, NW, None, None, ,  
02/08/2018 23:58, -11, 83, -15 ,12, 14, NW, None, None, ,  
02/08/2018 23:48, -12, 81, -16 ,12, 12, NW, None, None, ,  
02/08/2018 23:46, -12, 81, -16 ,11, 12, NW, None, None, ,  
02/08/2018 23:38, -10, 83, -14 ,11, 12, NW, None, None, ,  
02/08/2018 23:31, -11, 82, -15 ,11, 12, NW, None, None, ,  
02/08/2018 23:28, -11, 82, -15 ,10, 12, NW, None, None, ,  
02/08/2018 23:18, -11, 82, -15 ,11, 11, NW, None, None, ,  
02/08/2018 23:16, -11, 83, -15 ,11, 11, NW, None, None, ,  
02/08/2018 23:08, -11, 83, -15 ,9, 11, NW, None, None, ,  
02/08/2018 23:01, -11, 83, -14 ,10, 12, NW, None, None, ,  
02/08/2018 22:58, -11, 83, -15 ,11, 12, NW, None, None, ,  
02/08/2018 22:48, -12, 83, -15 ,10, 11, NW, None, None, ,  
02/08/2018 22:46, -12, 83, -15 ,11, 11, NW, None, None, ,  
02/08/2018 22:38, -12, 84, -15 ,11, 11, NW, None, None, ,  
02/08/2018 22:32, -12, 83, -16 ,9, 9, NW, None, None, ,  
02/08/2018 22:28, -12, 83, -16 ,9, 10, NW, None, None, ,  
02/08/2018 22:17, -12, 82, -16 ,9, 9, NW, None, None, ,  
02/08/2018 22:17, -12, 83, -16 ,9, 9, NW, None, None, ,  
02/08/2018 22:07, -11, 84, -14 ,9, 9, NW, None, None, ,  
02/08/2018 22:01, -11, 83, -15 ,9, 9, NW, None, None, ,  
02/08/2018 21:57, -11, 83, -14 ,8, 9, NW, None, None, ,  
02/08/2018 21:47, -10, 84, -14 ,8, 9, NW, None, None, ,  
02/08/2018 21:46, -10, 84, -14 ,7, 8, NW, None, None, ,  
02/08/2018 21:37, -10, 84, -14 ,7, 7, NW, None, None, ,  
02/08/2018 21:32, -10, 83, -14 ,4, 6, NW, None, None, ,  
02/08/2018 21:27, -10, 83, -14 ,4, 6, NW, None, None, ,  
02/08/2018 21:17, -8, 84, -12 ,4, 5, NW, None, None, ,  
02/08/2018 21:17, -8, 84, -12 ,4, 5, NW, None, None, ,  
02/08/2018 21:07, -9, 85, -12 ,1, 2, W, None, None, ,  
02/08/2018 21:02, -9, 83, -13 ,1, 4, NW, None, None, ,  
02/08/2018 20:57, -9, 83, -12 ,2, 4, N, None, None, ,  
02/08/2018 20:47, -8, 85, -12 ,4, 6, N, None, None, ,  
02/08/2018 20:46, -9, 85, -12 ,4, 6, N, None, None, ,  
02/08/2018 20:37, -9, 84, -12 ,4, 6, N, None, None, ,  
02/08/2018 20:31, -9, 85, -12 ,4, 6, N, None, None, ,  
02/08/2018 20:27, -9, 84, -12 ,4, 7, N, None, None, ,  
02/08/2018 20:17, -8, 83, -12 ,6, 9, N, None, None, ,  
02/08/2018 20:16, -8, 83, -12 ,6, 10, N, None, None, ,  
02/08/2018 20:07, -6, 82, -10 ,9, 12, NE, None, None, ,  
02/08/2018 20:01, -6, 82, -10 ,11, 13, NE, None, None, ,  
02/08/2018 19:56, -6, 82, -10 ,11, 13, NE, None, None, ,  
02/08/2018 19:47, -5, 81, -9 ,12, 14, NE, None, None, ,  
02/08/2018 19:46, -5, 81, -9 ,12, 14, NE, None, None, ,  
02/08/2018 19:36, -4, 81, -9 ,12, 15, NE, None, None, ,  
02/08/2018 19:31, -4, 81, -8 ,12, 15, NE, None, None, ,  
02/08/2018 19:26, -3, 80, -8 ,13, 16, NE, None, None, ,  
02/08/2018 19:16, -3, 80, -7 ,13, 15, NE, None, None, ,  
02/08/2018 19:16, -3, 80, -7 ,13, 15, NE, None, None, ,  
02/08/2018 19:06, -3, 80, -7 ,13, 15, NE, None, None, ,  
02/08/2018 19:01, -3, 81, -7 ,12, 16, NE, None, None, ,  
02/08/2018 18:56, -3, 81, -7 ,13, 16, N, None, None, ,  
02/08/2018 18:46, -2, 82, -7 ,14, 17, N, None, None, ,  
02/08/2018 18:46, -2, 82, -7 ,14, 17, N, None, None, ,  
02/08/2018 18:36, -2, 83, -6 ,15, 17, NE, None, None, ,  
Change End Date:

Copyright © 1998-2015 Vaisala, Inc.
All Rights Reserved
Send comments about the data to:
SCAN Web ® is a registered trademark of Vaisala, Inc.
SCAN Web Version 6.0